[[{"header":{"parameterUnit":"m.s-1","parameterCategory":2,"la1":30.2991,"la2":30.254,"lo1":-89.0895,"lo2":-89.0444,"dy":0.0017,"dx":0.0017,"nx":28,"ny":28,"refTime":"2024-08-27T21:00:00:Z","depth":"0","parameterNumber":2,"parameterNumberName":"U-component_of_CURRENTS"},"data":[0,0,0,0,0,0,0,0,0,0,0,0,0,0,0,0,0,0,0,0,0,0,0,0,0,0,0,0,0,0,0,0,0,0,0,0,0,0,0,0,0,0,0,0,0,0,0,0,0,0,0,0,0,0,0,0,0,0,0.3434,0.3435,0,0.3521,0.3522,0.3523,0.3567,0.3567,0.3567,0.3567,0.368,0.3683,0.3686,0,0,0,0,0,0,0,0,0,0,0,0,0,0.3363,0.3363,0.3434,0.3435,0.3436,0.352,0.3522,0.3523,0.3567,0.3567,0.3567,0.3567,0.3679,0.3682,0.3686,0,0,0,0,0,0,0,0,0,0,0,0,0,0.3416,0.3364,0.3434,0.3468,0.3471,0.352,0.3522,0.3523,0.3567,0.3567,0.3567,0.3567,0.3677,0.3682,0.3686,0.3715,0,0,0.37,0.3702,0,0,0,0,0,0,0,0,0.3413,0.3419,0.3462,0.3465,0.347,0.3532,0.3538,0.3589,0.3567,0.3531,0.3567,0.3567,0.3632,0.3641,0.3658,0.3721,0.3725,0.3701,0.3703,0.3705,0.3707,0,0,0,0,0,0,0,0.3409,0.3416,0.3469,0.3463,0.3468,0.3498,0.3505,0.3548,0.3582,0.3534,0.3538,0.3546,0.3635,0.3653,0.3661,0.3727,0.37,0.3705,0.3707,0.3709,0.385,0.3851,0,0,0,0,0,0,0.3394,0.3412,0.3466,0.3472,0.344,0.3499,0.3507,0.3513,0.3581,0.3591,0.3546,0.3548,0.3645,0.3655,0.3665,0.3719,0.3705,0.371,0.3712,0.3849,0.385,0.3852,0,0,0,0,0,0,0.3392,0.3398,0.3463,0.3443,0.3454,0.3499,0.3506,0.3514,0.3537,0.359,0.36,0.356,0.3646,0.3658,0.3713,0.3723,0.3712,0.3716,0.3848,0.385,0.3851,0.3817,0,0,0,0,0,0,0.339,0.3397,0.34,0.3442,0.3454,0.3499,0.3507,0.3516,0.3541,0.3545,0.3605,0.3615,0.3647,0.3706,0.3718,0.3729,0.3719,0.3847,0.3849,0.3851,0.3817,0.3817,0.3818,0,0,0,0,0,0.3387,0.3395,0.3399,0.3406,0.3455,0.35,0.3509,0.3542,0.3542,0.356,0.3598,0.3613,0.3726,0.3711,0.3724,0.3737,0.3846,0.3848,0.385,0.3817,0.3817,0.3818,0,0,0,0,0,0,0.3367,0.3401,0.3407,0.3424,0.346,0.3507,0.3527,0.3542,0.3585,0.3588,0.363,0.3644,0.37,0.3724,0.3706,0.3785,0.3788,0.3793,0.3758,0.3759,0.3759,0.3759,0.3723,0,0,0,0,0,0.3361,0.3377,0.3413,0.3429,0.3445,0.3483,0.3504,0.3525,0.3566,0.3585,0.3622,0.3667,0.372,0.3742,0.3794,0.3832,0.3892,0.385,0.385,0.385,0.386,0.395,0.396,0.3859,0.3859,0.3859,0,0,0.3356,0.3379,0.3386,0.3426,0.3455,0.3486,0.3497,0.3531,0.3555,0.3591,0.3635,0.3677,0.3735,0.3785,0.381,0.3803,0.3914,0.3853,0.3852,0.3863,0.3954,0.3964,0.3972,0.3861,0.386,0.386,0,0,0.3358,0.3375,0.3388,0.342,0.3462,0.349,0.3497,0.3542,0.3562,0.3604,0.3643,0.3687,0.3753,0.3797,0.3828,0.3861,0.3921,0.3875,0.3866,0.3953,0.3962,0.3971,0.4076,0.4094,0.3864,0.3863,0.3863,0,0.3352,0.337,0.3401,0.3428,0.3453,0.3489,0.3512,0.3544,0.3599,0.3629,0.3615,0.373,0.3761,0.384,0.3841,0.3861,0.3931,0.3854,0.3953,0.3963,0.3972,0.4078,0.4098,0.3862,0.3862,0.3862,0.3863,0,0.3366,0.3383,0.3398,0.344,0.3474,0.3502,0.3547,0.3582,0.3599,0.3635,0.3707,0.3745,0.3822,0.3822,0.3836,0.3919,0.3956,0.395,0.3947,0.398,0.409,0.4112,0.386,0.3861,0.3861,0.3861,0,0,0.3342,0.3395,0.3397,0.3424,0.348,0.3516,0.356,0.3624,0.3686,0.3701,0.3786,0.3814,0.3845,0.3881,0.3905,0.3944,0.4054,0.3964,0.3969,0.4061,0.4276,0.4243,0.4265,0.4068,0.4071,0.4074,0.4332,0,0.3342,0.338,0.3408,0.3456,0.3486,0.3539,0.3594,0.366,0.3718,0.3817,0.3842,0.3941,0.3867,0.3926,0.3945,0.4071,0.4109,0.3987,0.4238,0.4246,0.4206,0.4287,0.4101,0.431,0.4354,0.4357,0.436,0,0.3339,0.3371,0.3405,0.3484,0.3504,0.3545,0.3661,0.3718,0.3854,0.3907,0.3978,0.4044,0.4139,0.4062,0.4226,0.4161,0.4206,0.4253,0.4264,0.426,0.4253,0.4283,0.4349,0.4242,0.4394,0.4392,0.4389,0,0.3314,0.3368,0.3396,0.3421,0.3517,0.3556,0.3619,0.3746,0.3843,0.3998,0.4111,0.4198,0.431,0.436,0.444,0.4367,0.4628,0.4555,0.4555,0.4556,0.446,0.4445,0.4441,0.464,0.4639,0.4639,0.4638,0,0.3305,0.3335,0.3391,0.3417,0.3497,0.3559,0.3683,0.3764,0.3935,0.4088,0.4168,0.4312,0.4388,0.4539,0.4545,0.4654,0.4725,0.4588,0.4625,0.4444,0.4425,0.4377,0.4329,0.4648,0.4646,0.4644,0.4643,0,0.3299,0.3314,0.3374,0.3458,0.349,0.356,0.3732,0.385,0.3991,0.4207,0.428,0.4479,0.467,0.4747,0.4897,0.4828,0.4787,0.4911,0.4704,0.4707,0.4542,0.45,0.4414,0.428,0.4963,0.4964,0.4965,0,0.3314,0.3339,0.3413,0.3471,0.3516,0.3626,0.373,0.3866,0.4001,0.43,0.4417,0.467,0.4811,0.5036,0.5002,0.5061,0.4861,0.4886,0.4667,0.4538,0.452,0.4316,0.4192,0.4551,0.4548,0.4546,0.4544,0,0.3396,0.3406,0.3465,0.3534,0.3623,0.3726,0.3866,0.3961,0.4153,0.432,0.4538,0.4678,0.4906,0.4885,0.497,0.495,0.4649,0.4838,0.4757,0.4246,0.3974,0.386,0.4403,0.4524,0.4526,0.4528,0.4529,0.4529,0.3491,0.3522,0.3567,0.3626,0.3716,0.3778,0.3816,0.3966,0.4107,0.4278,0.4497,0.4611,0.4716,0.48,0.4775,0.4591,0.4539,0.4395,0.4382,0.4208,0.3963,0.4471,0.4584,0.4586,0.4588,0.459,0.4591,0,0.3589,0.3591,0.3667,0.369,0.3733,0.377,0.3878,0.3867,0.3933,0.4153,0.4279,0.4349,0.4356,0.4389,0.4304,0.4152,0.3904,0.403,0.3685,0.3604,0.4125,0.3988,0.3911,0.3911,0.3911,0.3911,0.3911,0.3911,0.3645,0.3674,0.3648,0.3666,0.3684,0.3653,0.3657,0.3639,0.3722,0.3747,0.3771,0.3885,0.4026,0.4081,0.3938,0.3831,0.3535,0.3372,0.3374,0.3741,0.3771,0.38,0.3657,0.3512,0.3512,0.2651,0.2645,0.264]},{"header":{"parameterUnit":"m.s-1","parameterCategory":2,"la1":30.2991,"la2":30.254,"lo1":-89.0895,"lo2":-89.0444,"dy":0.0017,"dx":0.0017,"nx":28,"ny":28,"refTime":"2024-08-27T21:00:00:Z","depth":"0","parameterNumber":3,"parameterNumberName":"V-component_of_CURRENTS"},"data":[0,0,0,0,0,0,0,0,0,0,0,0,0,0,0,0,0,0,0,0,0,0,0,0,0,0,0,0,0,0,0,0,0,0,0,0,0,0,0,0,0,0,0,0,0,0,0,0,0,0,0,0,0,0,0,0,0,0,0.0222,0.0221,0,0.0156,0.0155,0.0154,0.0098,0.0098,0.0098,0.0097,-0.001,-0.0012,-0.0015,0,0,0,0,0,0,0,0,0,0,0,0,0,0.0233,0.0233,0.0222,0.0221,0.0221,0.0156,0.0155,0.0154,0.0098,0.0098,0.0098,0.0097,-0.0009,-0.0012,-0.0015,0,0,0,0,0,0,0,0,0,0,0,0,0,0.0201,0.0233,0.0222,0.0187,0.0184,0.0156,0.0155,0.0153,0.0098,0.0098,0.0097,0.0097,-0.0008,-0.0012,-0.0016,-0.0029,0,0,-0.0027,-0.0029,0,0,0,0,0,0,0,0,0.0203,0.0201,0.0193,0.019,0.0186,0.0137,0.012,0.0091,0.0099,0.0128,0.0097,0.0097,0.0038,0.003,0.0015,-0.0034,-0.0038,-0.0027,-0.003,-0.0031,-0.0032,0,0,0,0,0,0,0,0.0206,0.0203,0.0193,0.0193,0.0188,0.0153,0.0148,0.0114,0.0083,0.0125,0.0122,0.0119,0.0035,0.0019,0.0012,-0.004,-0.0027,-0.0031,-0.0033,-0.0035,-0.0088,-0.0087,0,0,0,0,0,0,0.0224,0.0205,0.0195,0.0191,0.0197,0.0153,0.0148,0.0151,0.0085,0.0075,0.012,0.0117,0.0026,0.0017,0.0008,0.0014,-0.0031,-0.0035,-0.0037,-0.0089,-0.0088,-0.0087,0,0,0,0,0,0,0.0224,0.0224,0.0198,0.0198,0.0193,0.0155,0.0158,0.015,0.0139,0.0081,0.007,0.0118,0.0025,0.0014,-0.0009,0.0008,-0.0037,-0.004,-0.009,-0.0089,-0.0088,0.0008,0,0,0,0,0,0,0.0225,0.0224,0.023,0.02,0.0194,0.0195,0.0159,0.0149,0.014,0.0135,0.0077,0.0066,0.0024,-0.0003,-0.0013,0.0002,-0.0043,-0.0091,-0.0089,-0.0088,0.0004,0.0012,0.002,0,0,0,0,0,0.0226,0.0243,0.0231,0.023,0.0204,0.0196,0.0189,0.0157,0.0141,0.0144,0.0106,0.0068,-0.0,-0.0005,-0.0017,-0.0003,-0.0092,-0.009,-0.0088,-0.0,0.001,0.0019,0,0,0,0,0,0,0.025,0.0238,0.0225,0.0237,0.0223,0.0188,0.0187,0.0167,0.0139,0.0134,0.0077,0.0064,0.0048,0.0012,0.0008,-0.0013,-0.0052,-0.0052,0.0019,0.0029,0.0037,0.0059,-0.0046,0,0,0,0,0,0.026,0.027,0.025,0.026,0.0256,0.0223,0.0214,0.0197,0.017,0.0157,0.0117,0.0077,0.0046,0.0031,-0.0005,-0.0015,-0.004,-0.0013,-0.0005,0.0002,0.0013,-0.0012,-0.0005,-0.0081,-0.0081,-0.0081,0,0,0.027,0.0267,0.0271,0.0265,0.0248,0.0258,0.0216,0.0214,0.0222,0.015,0.0144,0.0101,0.005,0.0038,0.0028,0.0011,0.0013,0.0004,0.0011,0.0018,-0.0009,-0.0002,0.0005,-0.0079,-0.008,-0.008,0,0,0.0305,0.0296,0.0316,0.0311,0.0301,0.0286,0.0293,0.0266,0.0253,0.0243,0.0196,0.0169,0.012,0.0091,0.007,0.0101,0.0054,0.0088,0.0148,0.0125,0.0131,0.0136,0.0131,0.0135,0.0095,0.0095,0.0095,0,0.0318,0.0342,0.032,0.0338,0.0344,0.0308,0.0334,0.0318,0.0288,0.0287,0.0255,0.0196,0.0147,0.0142,0.0149,0.012,0.0104,0.0117,0.0137,0.0141,0.0144,0.0137,0.014,0.01,0.0099,0.0099,0.0098,0,0.0365,0.0384,0.0397,0.0411,0.0415,0.0431,0.0414,0.0413,0.0392,0.0374,0.036,0.0295,0.0262,0.0242,0.0201,0.0208,0.0188,0.0148,0.0116,0.0158,0.0148,0.0149,0.0107,0.0105,0.0104,0.0102,0,0,0.0403,0.0427,0.0433,0.046,0.0458,0.0475,0.0488,0.0498,0.0529,0.0475,0.0509,0.0431,0.0393,0.0366,0.0312,0.0289,0.0296,0.0236,0.0233,0.0239,0.0261,0.0247,0.0247,0.0258,0.0259,0.0259,0.025,0,0.0449,0.051,0.0504,0.0566,0.0598,0.0577,0.0605,0.0607,0.0596,0.062,0.055,0.0559,0.0443,0.0448,0.0395,0.0337,0.0301,0.0303,0.0212,0.021,0.0198,0.0248,0.025,0.0241,0.0251,0.0251,0.0251,0,0.0498,0.0539,0.0611,0.0665,0.0679,0.0713,0.0764,0.0785,0.0792,0.0786,0.0755,0.0709,0.0674,0.0576,0.0462,0.047,0.0367,0.0304,0.0301,0.0256,0.0199,0.0195,0.0243,0.0027,0.0253,0.0253,0.0252,0,0.0556,0.0613,0.0683,0.0698,0.0753,0.0789,0.0821,0.0841,0.0899,0.0913,0.097,0.0871,0.088,0.0727,0.0574,0.0524,0.0466,0.0378,0.0261,0.0259,0.0226,0.0221,0.0059,0.0283,0.0283,0.0283,0.0283,0,0.0613,0.0669,0.0723,0.0768,0.0874,0.0874,0.0987,0.0999,0.1064,0.1177,0.1072,0.1154,0.0919,0.0852,0.0656,0.049,0.0518,0.029,0.0259,0.0261,0.0259,0.004,-0.0079,0.0283,0.0283,0.0283,0.0283,0,0.0671,0.0697,0.0793,0.0873,0.0909,0.0992,0.1119,0.1207,0.1247,0.1398,0.1427,0.1391,0.1302,0.1066,0.0859,0.0636,0.0339,0.0383,0.0413,0.0385,0.0036,-0.0076,-0.0256,-0.0357,0.0242,0.0242,0.0241,0,0.0707,0.0765,0.0888,0.0969,0.1016,0.1137,0.1238,0.13,0.1409,0.1568,0.1665,0.1634,0.1654,0.1343,0.0943,0.0608,0.0367,0.0365,0.0242,0.0036,-0.0113,-0.0203,-0.0282,0.0242,0.0242,0.0242,0.0242,0,0.0798,0.0844,0.0931,0.1087,0.121,0.1349,0.1493,0.1608,0.1721,0.1869,0.2045,0.2092,0.1805,0.1471,0.0993,0.074,0.021,0.0347,0.0121,-0.0129,-0.0224,-0.034,0.0238,0.024,0.024,0.024,0.024,0.024,0.0878,0.0953,0.107,0.1212,0.136,0.1534,0.1661,0.1837,0.2045,0.2278,0.2312,0.2439,0.1939,0.1292,0.0919,0.0201,0.0183,-0.0047,-0.0162,-0.0232,-0.035,0.0237,0.0206,0.0206,0.0206,0.0206,0.0206,0,0.0957,0.1039,0.1186,0.1355,0.1517,0.1578,0.1814,0.1958,0.2215,0.2477,0.2636,0.249,0.1883,0.1235,0.0262,-0.0229,-0.0413,-0.0491,-0.0641,-0.0698,-0.0184,-0.0207,-0.0312,-0.0312,-0.0312,-0.0311,-0.0311,-0.0311,0.1007,0.1132,0.119,0.144,0.1574,0.1793,0.1926,0.2156,0.2375,0.2686,0.2802,0.2848,0.2336,0.0677,-0.046,-0.0713,-0.1043,-0.1112,-0.1277,-0.096,-0.0928,-0.0898,-0.0949,-0.1209,-0.121,-0.1745,-0.175,-0.1755]}],[{"header":{"parameterUnit":"m.s-1","parameterCategory":2,"la1":30.2991,"la2":30.254,"lo1":-89.0895,"lo2":-89.0444,"dy":0.0017,"dx":0.0017,"nx":28,"ny":28,"refTime":"2024-08-27T21:00:00:Z","depth":"2","parameterNumber":2,"parameterNumberName":"U-component_of_CURRENTS"},"data":[0,0,0,0,0,0,0,0,0,0,0,0,0,0,0,0,0,0,0,0,0,0,0,0,0,0,0,0,0,0,0,0,0,0,0,0,0,0,0,0,0,0,0,0,0,0,0,0,0,0,0,0,0,0,0,0,0,0,0.2875,0.2876,0,0.2912,0.2912,0.2912,0.292,0.292,0.292,0.292,0.2941,0.2941,0.2942,0,0,0,0,0,0,0,0,0,0,0,0,0,0.282,0.282,0.2875,0.2876,0.2876,0.2912,0.2912,0.2912,0.292,0.292,0.292,0.292,0.294,0.2941,0.2942,0,0,0,0,0,0,0,0,0,0,0,0,0,0.2846,0.282,0.2875,0.2887,0.2888,0.2912,0.2912,0.2912,0.292,0.292,0.292,0.292,0.294,0.2941,0.2942,0.2947,0,0,0.2944,0.2945,0,0,0,0,0,0,0,0,0.2844,0.2847,0.2884,0.2886,0.2888,0.2914,0.29,0.2924,0.292,0.2905,0.292,0.292,0.2932,0.2934,0.2936,0.2948,0.2948,0.2944,0.2945,0.2945,0.2945,0,0,0,0,0,0,0,0.2842,0.2846,0.2886,0.2885,0.2887,0.2893,0.2897,0.2905,0.2915,0.2906,0.2908,0.2916,0.2933,0.2936,0.2937,0.2949,0.2944,0.2945,0.2946,0.2946,0.3039,0.3041,0,0,0,0,0,0,0.2844,0.2844,0.2885,0.2888,0.2869,0.2895,0.2898,0.2903,0.2916,0.2919,0.2916,0.2917,0.2934,0.2936,0.2938,0.299,0.2945,0.2946,0.2946,0.3037,0.304,0.3042,0,0,0,0,0,0,0.2842,0.2847,0.2884,0.2869,0.2875,0.2896,0.2901,0.2904,0.2921,0.2924,0.2926,0.2932,0.2934,0.2937,0.2968,0.2989,0.2946,0.2947,0.3035,0.3038,0.3041,0.3065,0,0,0,0,0,0,0.284,0.2846,0.2853,0.2869,0.2876,0.2909,0.2902,0.2905,0.2927,0.2928,0.2938,0.2939,0.2935,0.2967,0.2969,0.2989,0.2948,0.3032,0.3036,0.304,0.3061,0.3068,0.3074,0,0,0,0,0,0.2838,0.2847,0.2852,0.2858,0.2883,0.291,0.2914,0.2927,0.2928,0.294,0.2955,0.294,0.2992,0.2969,0.2971,0.2992,0.303,0.3035,0.3039,0.3059,0.3067,0.3074,0,0,0,0,0,0,0.2824,0.2849,0.2856,0.2871,0.2895,0.2913,0.2928,0.2936,0.2956,0.2961,0.2959,0.2962,0.3002,0.3,0.2974,0.3035,0.3011,0.3016,0.3026,0.3033,0.3039,0.3047,0.2948,0,0,0,0,0,0.2825,0.284,0.2865,0.288,0.2894,0.2913,0.2927,0.2939,0.2958,0.2967,0.2976,0.2994,0.302,0.3028,0.3049,0.3073,0.3097,0.3093,0.3099,0.3104,0.3115,0.3176,0.3189,0.3056,0.3056,0.3056,0,0,0.2822,0.2841,0.2849,0.2879,0.2898,0.2921,0.2921,0.295,0.2972,0.2967,0.2999,0.3019,0.3036,0.3071,0.3087,0.3069,0.3157,0.311,0.3113,0.3122,0.3182,0.3195,0.3206,0.3059,0.3059,0.3058,0,0,0.2827,0.2845,0.2859,0.2884,0.292,0.2936,0.2949,0.2978,0.2993,0.3027,0.3039,0.3075,0.3098,0.312,0.3133,0.3188,0.3195,0.3196,0.3222,0.3281,0.3292,0.3302,0.3355,0.3369,0.319,0.3191,0.3191,0,0.2825,0.2843,0.2868,0.2892,0.2915,0.2945,0.2967,0.2992,0.3028,0.3053,0.3043,0.3118,0.3124,0.3181,0.3198,0.3201,0.3236,0.3184,0.3288,0.3298,0.3308,0.336,0.3375,0.3192,0.3192,0.3192,0.3192,0,0.284,0.2858,0.2873,0.2912,0.2941,0.2968,0.3007,0.3042,0.3064,0.309,0.3154,0.3173,0.3222,0.3227,0.3224,0.3301,0.3306,0.3293,0.3262,0.3323,0.3374,0.339,0.3195,0.3194,0.3194,0.3193,0,0,0.2817,0.2871,0.2873,0.2896,0.2953,0.2978,0.3029,0.3084,0.3131,0.3165,0.3227,0.3264,0.329,0.3309,0.3319,0.3355,0.3447,0.3352,0.3354,0.3394,0.3586,0.3531,0.3542,0.3453,0.3456,0.3458,0.3595,0,0.2818,0.2856,0.2885,0.2927,0.2952,0.3006,0.3054,0.3114,0.3165,0.3236,0.3276,0.334,0.3318,0.3352,0.339,0.3448,0.349,0.3411,0.3532,0.3536,0.347,0.3559,0.326,0.3352,0.361,0.3613,0.3615,0,0.2813,0.2843,0.2878,0.2943,0.2961,0.2997,0.3092,0.314,0.3249,0.3295,0.3371,0.3414,0.35,0.3461,0.3585,0.354,0.3571,0.3593,0.3599,0.3549,0.351,0.3335,0.3371,0.3641,0.3639,0.3637,0.3635,0,0.2779,0.2833,0.286,0.2883,0.2966,0.3003,0.3056,0.316,0.3223,0.3349,0.3421,0.3514,0.3594,0.3643,0.37,0.3659,0.3827,0.3775,0.3752,0.3748,0.3519,0.349,0.3858,0.3858,0.3857,0.3857,0.3857,0,0.2764,0.2785,0.2849,0.2869,0.2922,0.299,0.3067,0.3144,0.3269,0.3367,0.3457,0.3552,0.3647,0.3748,0.3759,0.3824,0.3886,0.3784,0.379,0.352,0.3491,0.3753,0.3739,0.3862,0.3861,0.386,0.3859,0,0.2721,0.276,0.2798,0.2879,0.2908,0.295,0.3069,0.313,0.3265,0.3403,0.3455,0.3629,0.3763,0.3839,0.3948,0.3917,0.3962,0.396,0.3639,0.3603,0.3825,0.3811,0.3953,0.3952,0.3952,0.3951,0.3951,0,0.2703,0.2716,0.2791,0.2815,0.2852,0.2924,0.2978,0.3112,0.3184,0.3438,0.3498,0.3696,0.3792,0.3942,0.3929,0.3961,0.4002,0.3693,0.3548,0.3849,0.3841,0.3827,0.3814,0.3257,0.3251,0.3246,0.3242,0,0.2677,0.2701,0.2738,0.2771,0.2821,0.2872,0.2962,0.3011,0.3191,0.3313,0.3482,0.3587,0.3769,0.3673,0.374,0.3704,0.366,0.3595,0.4017,0.328,0.3204,0.3192,0.32,0.3198,0.3203,0.3206,0.3208,0.321,0.2661,0.2663,0.2698,0.2726,0.2772,0.2793,0.2791,0.289,0.2978,0.3114,0.3324,0.3388,0.3461,0.3406,0.3313,0.3248,0.3491,0.331,0.3321,0.3337,0.3233,0.3161,0.3127,0.3131,0.3134,0.3137,0.314,0,0.2605,0.2616,0.2645,0.2652,0.2642,0.2706,0.2754,0.2708,0.2734,0.2907,0.3016,0.2849,0.2822,0.2886,0.2725,0.2735,0.2654,0.2613,0.2467,0.2516,0.2559,0.2407,0.2087,0.2083,0.2079,0.2076,0,0,0.2581,0.257,0.2572,0.2525,0.252,0.2455,0.2449,0.2403,0.245,0.2427,0.2461,0.2718,0.2833,0.2429,0.2379,0.2198,0.2326,0.2113,0.297,0.285,0.2887,0.2992,0.2821,0,0,0,0,0]},{"header":{"parameterUnit":"m.s-1","parameterCategory":2,"la1":30.2991,"la2":30.254,"lo1":-89.0895,"lo2":-89.0444,"dy":0.0017,"dx":0.0017,"nx":28,"ny":28,"refTime":"2024-08-27T21:00:00:Z","depth":"2","parameterNumber":3,"parameterNumberName":"V-component_of_CURRENTS"},"data":[0,0,0,0,0,0,0,0,0,0,0,0,0,0,0,0,0,0,0,0,0,0,0,0,0,0,0,0,0,0,0,0,0,0,0,0,0,0,0,0,0,0,0,0,0,0,0,0,0,0,0,0,0,0,0,0,0,0,0.0196,0.0196,0,0.0142,0.0141,0.014,0.0096,0.0096,0.0096,0.0096,0.0011,0.0009,0.0007,0,0,0,0,0,0,0,0,0,0,0,0,0,0.0205,0.0205,0.0196,0.0196,0.0195,0.0142,0.0141,0.014,0.0096,0.0096,0.0096,0.0095,0.0012,0.0009,0.0007,0,0,0,0,0,0,0,0,0,0,0,0,0,0.0179,0.0205,0.0196,0.0169,0.0166,0.0142,0.0141,0.014,0.0096,0.0096,0.0096,0.0095,0.0012,0.0009,0.0006,-0.0005,0,0,-0.0003,-0.0004,0,0,0,0,0,0,0,0,0.018,0.0178,0.0173,0.017,0.0167,0.0127,0.0113,0.009,0.0096,0.012,0.0096,0.0095,0.0049,0.0043,0.0031,-0.0009,-0.0013,-0.0003,-0.0005,-0.0006,-0.0007,0,0,0,0,0,0,0,0.0182,0.018,0.0172,0.0173,0.0169,0.0139,0.0135,0.0108,0.0085,0.0118,0.0116,0.0113,0.0047,0.0034,0.0028,-0.0014,-0.0003,-0.0006,-0.0008,-0.0009,-0.006,-0.006,0,0,0,0,0,0,0.0197,0.0182,0.0174,0.0171,0.0175,0.014,0.0135,0.0139,0.0086,0.0078,0.0113,0.0111,0.0039,0.0032,0.0025,0.0028,-0.0006,-0.0009,-0.0011,-0.0061,-0.006,-0.006,0,0,0,0,0,0,0.0197,0.0197,0.0176,0.0176,0.0172,0.0141,0.0144,0.0138,0.0129,0.0083,0.0074,0.0112,0.0038,0.0029,0.001,0.0024,-0.001,-0.0013,-0.0061,-0.0061,-0.006,0.0022,0,0,0,0,0,0,0.0198,0.0198,0.0203,0.0178,0.0173,0.0173,0.0145,0.0137,0.0129,0.0126,0.0079,0.007,0.0037,0.0015,0.0007,0.0019,-0.0016,-0.0062,-0.0061,-0.006,0.0019,0.0025,0.0031,0,0,0,0,0,0.0199,0.0214,0.0204,0.0203,0.0182,0.0174,0.0169,0.0143,0.013,0.0132,0.0101,0.0072,0.0014,0.0013,0.0004,0.0015,-0.0062,-0.0061,-0.006,0.0016,0.0024,0.0031,0,0,0,0,0,0,0.0218,0.021,0.0199,0.021,0.0197,0.0168,0.0167,0.0151,0.0128,0.0124,0.0078,0.0068,0.0054,0.0024,0.0023,0.0002,-0.0029,-0.003,0.0032,0.0039,0.0046,0.0066,-0.0018,0,0,0,0,0,0.0227,0.0237,0.022,0.0228,0.0225,0.0197,0.019,0.0176,0.0153,0.0142,0.011,0.0076,0.005,0.0038,0.0007,-0.0002,-0.0034,-0.0002,0.0005,0.001,0.002,-0.0017,-0.0013,-0.0057,-0.0057,-0.0057,0,0,0.0236,0.0233,0.0238,0.0233,0.0219,0.0227,0.0191,0.019,0.0197,0.0137,0.0133,0.0095,0.0052,0.0041,0.0032,0.0019,0.0005,0.0012,0.0017,0.0023,-0.0016,-0.0012,-0.0008,-0.0056,-0.0056,-0.0056,0,0,0.0265,0.0259,0.0277,0.0273,0.0264,0.0252,0.0257,0.0234,0.0223,0.0215,0.0174,0.0149,0.0108,0.0082,0.0064,0.0086,0.0038,0.0074,0.0125,0.0089,0.0093,0.0095,0.0063,0.0062,0.008,0.008,0.008,0,0.0277,0.0299,0.028,0.0296,0.0302,0.027,0.0293,0.028,0.0253,0.0251,0.0225,0.017,0.0129,0.012,0.0126,0.0101,0.0073,0.0103,0.0098,0.01,0.0101,0.0067,0.0065,0.0084,0.0084,0.0084,0.0083,0,0.0318,0.0336,0.0347,0.0361,0.0364,0.0379,0.0364,0.0362,0.0343,0.0326,0.0308,0.0251,0.022,0.0201,0.017,0.0164,0.0139,0.011,0.0084,0.0111,0.0073,0.0069,0.009,0.0089,0.0088,0.0087,0,0,0.035,0.0374,0.0379,0.0402,0.0403,0.0416,0.0429,0.0434,0.0453,0.0408,0.0421,0.0363,0.0328,0.0305,0.0258,0.0225,0.0205,0.018,0.0176,0.0155,0.013,0.0095,0.0086,0.0176,0.0176,0.0176,0.0101,0,0.039,0.0444,0.0442,0.0495,0.0522,0.0505,0.0527,0.0526,0.051,0.0512,0.045,0.0441,0.037,0.0362,0.0316,0.0237,0.0199,0.0229,0.0099,0.0096,0.0067,0.0082,0.0115,0.005,0.0097,0.0097,0.0096,0,0.0432,0.0468,0.053,0.0576,0.0587,0.0615,0.065,0.0666,0.0653,0.0639,0.0606,0.0555,0.0506,0.0441,0.0315,0.0338,0.0244,0.0173,0.0168,0.0105,0.0054,0.0028,0.0041,0.0089,0.009,0.009,0.0091,0,0.0476,0.0529,0.0588,0.0603,0.0648,0.0676,0.0701,0.0707,0.0742,0.0725,0.0744,0.0657,0.0636,0.0503,0.0348,0.0334,0.0205,0.0164,0.0041,0.0037,0.0025,0.002,0.0073,0.0073,0.0073,0.0073,0.0073,0,0.0524,0.0569,0.0618,0.0655,0.0738,0.0741,0.082,0.0826,0.0854,0.0922,0.0821,0.0845,0.0652,0.0552,0.0388,0.0209,0.023,0.0055,0.0017,0.0054,0.0053,0.0052,0.0051,0.007,0.0071,0.0071,0.0072,0,0.0561,0.059,0.0666,0.0733,0.0764,0.0825,0.0915,0.0971,0.0983,0.1068,0.1074,0.0994,0.0864,0.0654,0.0444,0.028,0.0099,0.0027,0.0083,0.0052,-0.0057,-0.0053,-0.0117,-0.0119,-0.012,-0.0121,-0.0122,0,0.0582,0.0628,0.0732,0.0793,0.0831,0.0922,0.0995,0.1037,0.111,0.1171,0.1224,0.1125,0.1076,0.0735,0.0425,0.0127,0.0089,-0.0044,-0.0075,-0.0045,-0.0076,-0.007,-0.0064,-0.0059,-0.0059,-0.0059,-0.006,0,0.0631,0.067,0.0742,0.087,0.0962,0.1072,0.118,0.126,0.1335,0.1403,0.1471,0.1437,0.1123,0.0818,0.0397,0.0197,0.0001,-0.0063,-0.0039,-0.0017,0.0003,-0.0025,-0.002,-0.0063,-0.0063,-0.0063,-0.0062,-0.0062,0.0672,0.0731,0.0833,0.0955,0.1068,0.1215,0.1322,0.1438,0.1576,0.1694,0.165,0.1603,0.1255,0.0712,0.0346,-0.0038,-0.0017,-0.015,-0.0146,-0.0142,-0.0123,-0.0107,-0.019,-0.019,-0.0191,-0.0191,-0.0191,0,0.0719,0.0796,0.091,0.1065,0.1198,0.1254,0.1445,0.1552,0.1727,0.1808,0.1852,0.1526,0.1176,0.0771,0.0202,-0.0137,-0.0153,-0.0245,-0.0186,-0.018,-0.0175,-0.0156,-0.0234,-0.0235,-0.0236,-0.0237,0,0,0.0751,0.0864,0.0927,0.1151,0.1267,0.1459,0.1579,0.1734,0.1832,0.1903,0.1875,0.1791,0.1303,0.0882,0.0418,0.0091,0.0036,0.0028,0.0101,0.0233,0.0242,-0.008,-0.0039,0,0,0,0,0]}],[{"header":{"parameterUnit":"m.s-1","parameterCategory":2,"la1":30.2991,"la2":30.254,"lo1":-89.0895,"lo2":-89.0444,"dy":0.0017,"dx":0.0017,"nx":28,"ny":28,"refTime":"2024-08-27T21:00:00:Z","depth":"4","parameterNumber":2,"parameterNumberName":"U-component_of_CURRENTS"},"data":[0,0,0,0,0,0,0,0,0,0,0,0,0,0,0,0,0,0,0,0,0,0,0,0,0,0,0,0,0,0,0,0,0,0,0,0,0,0,0,0,0,0,0,0,0,0,0,0,0,0,0,0,0,0,0,0,0,0,0.1869,0.187,0,0.1919,0.1919,0.1919,0.197,0.1971,0.1972,0.1973,0.2035,0.2036,0.2036,0,0,0,0,0,0,0,0,0,0,0,0,0,0.179,0.1791,0.1869,0.187,0.1871,0.1919,0.1919,0.1919,0.197,0.1971,0.1972,0.1973,0.2035,0.2036,0.2037,0,0,0,0,0,0,0,0,0,0,0,0,0,0.1827,0.1791,0.1869,0.1904,0.1908,0.1919,0.1919,0.1919,0.197,0.1971,0.1973,0.1974,0.2035,0.2036,0.2037,0.2014,0,0,0.204,0.204,0,0,0,0,0,0,0,0,0.1825,0.183,0.1898,0.1902,0.1906,0.1943,0.1914,0.1953,0.1969,0.1943,0.1973,0.1975,0.2006,0.201,0.2011,0.2016,0.2019,0.204,0.2041,0.2041,0.2042,0,0,0,0,0,0,0,0.1822,0.1828,0.1885,0.1899,0.1904,0.1908,0.1915,0.1921,0.1963,0.1945,0.195,0.196,0.2008,0.201,0.2013,0.202,0.204,0.2041,0.2042,0.2042,0.2141,0.2143,0,0,0,0,0,0,0.1823,0.1825,0.1884,0.1887,0.1872,0.1909,0.1916,0.1927,0.1963,0.1971,0.1959,0.1962,0.2007,0.2012,0.2015,0.2109,0.2041,0.2042,0.2043,0.2139,0.2142,0.2144,0,0,0,0,0,0,0.1821,0.1828,0.1882,0.186,0.1868,0.1909,0.192,0.1927,0.1975,0.1974,0.1982,0.2006,0.2008,0.2014,0.2062,0.2107,0.2043,0.2044,0.2137,0.214,0.2143,0.2219,0,0,0,0,0,0,0.1818,0.1826,0.1851,0.186,0.1869,0.1918,0.1919,0.1927,0.1978,0.1984,0.2016,0.202,0.201,0.206,0.2063,0.2107,0.2045,0.2134,0.2138,0.2142,0.2214,0.2225,0.2233,0,0,0,0,0,0.1815,0.1835,0.1852,0.186,0.1896,0.1919,0.1925,0.1956,0.1979,0.2004,0.2031,0.2022,0.2086,0.2063,0.2065,0.2111,0.2133,0.2137,0.2141,0.221,0.2223,0.2233,0,0,0,0,0,0,0.1813,0.1843,0.1861,0.1891,0.192,0.193,0.1961,0.1982,0.2021,0.2041,0.2041,0.2047,0.2108,0.2098,0.2073,0.2152,0.211,0.2115,0.2162,0.2173,0.2183,0.2189,0.2045,0,0,0,0,0,0.1824,0.1852,0.1876,0.1906,0.1925,0.1952,0.1975,0.1998,0.2024,0.2046,0.2068,0.2094,0.2119,0.2139,0.2155,0.2193,0.2196,0.2227,0.2236,0.2244,0.2253,0.2299,0.2314,0.2158,0.2158,0.2158,0,0,0.1832,0.1854,0.1872,0.191,0.1936,0.1964,0.197,0.2017,0.2051,0.2044,0.211,0.2131,0.2138,0.2185,0.2212,0.2189,0.2292,0.225,0.2257,0.2261,0.2305,0.232,0.2334,0.2161,0.2161,0.216,0,0,0.1848,0.1885,0.1911,0.1939,0.1988,0.2003,0.2029,0.2067,0.2102,0.2154,0.2166,0.2218,0.225,0.2267,0.2277,0.2348,0.2343,0.2362,0.2414,0.246,0.2473,0.2484,0.2513,0.2526,0.2365,0.2365,0.2365,0,0.1862,0.1891,0.1923,0.1953,0.1983,0.2027,0.2059,0.2094,0.2147,0.2182,0.219,0.2275,0.2286,0.2344,0.2374,0.2371,0.2392,0.2368,0.2472,0.2484,0.2494,0.252,0.2534,0.2369,0.2369,0.2368,0.2368,0,0.1882,0.1922,0.1942,0.1994,0.2031,0.207,0.2116,0.2172,0.2222,0.2253,0.2342,0.2364,0.2416,0.2432,0.2425,0.2512,0.2501,0.2481,0.2441,0.2514,0.2537,0.255,0.2375,0.2374,0.2372,0.2371,0,0,0.1863,0.1941,0.1951,0.1985,0.2059,0.2085,0.2159,0.2225,0.2283,0.2351,0.2422,0.2483,0.2518,0.2532,0.2545,0.2585,0.2678,0.2574,0.2575,0.2599,0.2782,0.2607,0.2604,0.2684,0.2686,0.2689,0.2769,0,0.1872,0.1928,0.1968,0.2032,0.2065,0.2135,0.2193,0.2267,0.2335,0.2415,0.2475,0.2546,0.2549,0.2592,0.2639,0.267,0.2717,0.2658,0.271,0.2711,0.2545,0.2614,0.2697,0.2779,0.2782,0.2784,0.2785,0,0.1867,0.1909,0.1971,0.2055,0.2078,0.2131,0.2242,0.2302,0.2419,0.2475,0.2569,0.2616,0.2712,0.2692,0.28,0.2769,0.2792,0.2804,0.2807,0.2624,0.256,0.269,0.2808,0.2806,0.2805,0.2803,0.2802,0,0.182,0.1905,0.1958,0.1989,0.2091,0.215,0.2219,0.2333,0.239,0.2532,0.2591,0.2701,0.2774,0.2829,0.2878,0.2855,0.2973,0.2934,0.2799,0.2787,0.2885,0.2872,0.301,0.301,0.301,0.3009,0.3009,0,0.179,0.1836,0.1951,0.198,0.2053,0.2142,0.2235,0.2319,0.2439,0.2508,0.2632,0.2694,0.2818,0.2895,0.2915,0.2899,0.3012,0.282,0.28,0.2916,0.2905,0.2895,0.288,0.3012,0.3012,0.3011,0.3011,0,0.1721,0.1799,0.1864,0.1988,0.2033,0.2092,0.2231,0.2283,0.2423,0.252,0.2572,0.2724,0.2823,0.2913,0.3005,0.293,0.2935,0.2902,0.3034,0.3018,0.2708,0.2697,0.2744,0.2739,0.2734,0.273,0.2727,0,0.1684,0.1716,0.1854,0.1893,0.1957,0.206,0.2116,0.2262,0.2314,0.251,0.2535,0.2695,0.2781,0.2774,0.2878,0.2906,0.2875,0.2851,0.2762,0.2707,0.2684,0.268,0.2675,0.272,0.2719,0.2717,0.2716,0,0.1608,0.1679,0.1731,0.1814,0.1886,0.1941,0.2044,0.2066,0.223,0.2382,0.2442,0.2497,0.2604,0.2667,0.2719,0.2729,0.2844,0.2802,0.281,0.2727,0.2678,0.2659,0.2659,0.27,0.2703,0.2704,0.2705,0,0.1552,0.1567,0.1647,0.1702,0.1779,0.1787,0.1864,0.1927,0.1999,0.222,0.224,0.2415,0.2579,0.2577,0.262,0.2623,0.2576,0.2473,0.2497,0.2516,0.2403,0.2305,0.2205,0,0,0,0,0,0.1479,0.1476,0.1522,0.1557,0.1623,0.1664,0.1785,0.1865,0.2039,0.2025,0.2124,0.2213,0.2283,0.2372,0.233,0.2514,0.2581,0.2452,0.2473,0.2612,0.2631,0.2517,0,0,0,0,0,0,0.1424,0.1461,0.1472,0.1418,0.1415,0.146,0.1529,0.1652,0.1657,0.1857,0.1913,0.2066,0.2174,0.2284,0.2282,0.2309,0.2273,0.2568,0.2561,0.2602,0.2618,0.2633,0.2523,0,0,0,0,0]},{"header":{"parameterUnit":"m.s-1","parameterCategory":2,"la1":30.2991,"la2":30.254,"lo1":-89.0895,"lo2":-89.0444,"dy":0.0017,"dx":0.0017,"nx":28,"ny":28,"refTime":"2024-08-27T21:00:00:Z","depth":"4","parameterNumber":3,"parameterNumberName":"V-component_of_CURRENTS"},"data":[0,0,0,0,0,0,0,0,0,0,0,0,0,0,0,0,0,0,0,0,0,0,0,0,0,0,0,0,0,0,0,0,0,0,0,0,0,0,0,0,0,0,0,0,0,0,0,0,0,0,0,0,0,0,0,0,0,0,0.0164,0.0164,0,0.0131,0.0131,0.0131,0.0106,0.0106,0.0106,0.0106,0.0048,0.0046,0.0045,0,0,0,0,0,0,0,0,0,0,0,0,0,0.0167,0.0168,0.0165,0.0164,0.0164,0.0132,0.0131,0.013,0.0106,0.0106,0.0106,0.0106,0.0048,0.0046,0.0045,0,0,0,0,0,0,0,0,0,0,0,0,0,0.0152,0.0168,0.0165,0.0149,0.0147,0.0132,0.0131,0.013,0.0106,0.0106,0.0106,0.0106,0.0049,0.0046,0.0044,0.0033,0,0,0.0038,0.0037,0,0,0,0,0,0,0,0,0.0153,0.0152,0.0152,0.015,0.0148,0.0124,0.0111,0.0097,0.0106,0.012,0.0106,0.0106,0.0072,0.0068,0.006,0.0031,0.0028,0.0037,0.0036,0.0035,0.0034,0,0,0,0,0,0,0,0.0154,0.0153,0.015,0.0151,0.0149,0.013,0.0128,0.0108,0.0096,0.0119,0.0118,0.0116,0.007,0.0062,0.0059,0.0027,0.0037,0.0035,0.0034,0.0033,-0.0008,-0.0007,0,0,0,0,0,0,0.0163,0.0154,0.0151,0.0149,0.0152,0.0131,0.0128,0.0131,0.0096,0.0092,0.0116,0.0115,0.0066,0.0061,0.0056,0.006,0.0035,0.0033,0.0032,-0.0008,-0.0008,-0.0007,0,0,0,0,0,0,0.0164,0.0164,0.0153,0.0152,0.0149,0.0131,0.0134,0.013,0.0127,0.0095,0.0089,0.0118,0.0066,0.006,0.0047,0.0057,0.0032,0.003,-0.0008,-0.0008,-0.0007,0.0054,0,0,0,0,0,0,0.0164,0.0164,0.017,0.0153,0.015,0.0151,0.0134,0.013,0.0127,0.0125,0.0094,0.0088,0.0065,0.005,0.0044,0.0053,0.0028,-0.0008,-0.0008,-0.0008,0.0052,0.0057,0.0061,0,0,0,0,0,0.0164,0.0176,0.017,0.017,0.0158,0.0152,0.0149,0.0134,0.0127,0.013,0.011,0.0089,0.0049,0.0049,0.0042,0.005,-0.0009,-0.0008,-0.0008,0.005,0.0056,0.0061,0,0,0,0,0,0,0.0178,0.0174,0.0168,0.0177,0.0168,0.0148,0.015,0.014,0.0126,0.0126,0.0094,0.0087,0.0078,0.0055,0.0055,0.0039,0.0016,0.0015,0.0062,0.0067,0.0072,0.0088,0.0026,0,0,0,0,0,0.0185,0.0194,0.0182,0.0189,0.0188,0.017,0.0166,0.0158,0.0143,0.0137,0.0115,0.0092,0.0073,0.0064,0.0043,0.0035,0.0005,0.0035,0.0039,0.0043,0.0051,0.0014,0.0016,-0.0006,-0.0006,-0.0006,0,0,0.0193,0.0191,0.0196,0.0193,0.0185,0.0193,0.0167,0.0168,0.0176,0.0133,0.0134,0.0106,0.0074,0.0067,0.0061,0.005,0.0032,0.0044,0.0048,0.0054,0.0014,0.0016,0.0018,-0.0005,-0.0005,-0.0005,0,0,0.0214,0.0211,0.0226,0.0224,0.022,0.0212,0.0216,0.0202,0.0196,0.0192,0.0164,0.0144,0.0117,0.0096,0.0082,0.0096,0.0056,0.0089,0.0127,0.009,0.0091,0.0093,0.0055,0.0052,0.0092,0.0092,0.0093,0,0.0223,0.024,0.0228,0.0241,0.0248,0.0226,0.0245,0.0237,0.022,0.0218,0.0202,0.0161,0.0131,0.0122,0.0127,0.0107,0.008,0.0111,0.0097,0.0097,0.0097,0.0058,0.0054,0.0095,0.0095,0.0095,0.0095,0,0.0253,0.0269,0.0278,0.0291,0.0295,0.0308,0.03,0.0299,0.0289,0.0277,0.0264,0.0221,0.0198,0.0182,0.016,0.0149,0.0127,0.0106,0.0086,0.0103,0.006,0.0055,0.01,0.0099,0.0098,0.0097,0,0,0.0273,0.0296,0.0301,0.0321,0.0326,0.0336,0.0349,0.0355,0.0369,0.0338,0.0345,0.0305,0.0278,0.026,0.0224,0.0192,0.0162,0.0157,0.0153,0.0125,0.0081,0.0059,0.0051,0.0141,0.014,0.014,0.0051,0,0.0302,0.0344,0.0347,0.0391,0.0412,0.0405,0.0423,0.0424,0.0413,0.0412,0.0364,0.0355,0.031,0.0301,0.0262,0.0188,0.0152,0.0188,0.0064,0.0061,0.0044,0.0045,0.0138,0.0047,0.0046,0.0045,0.0044,0,0.0331,0.0359,0.041,0.045,0.046,0.0484,0.0513,0.0527,0.0515,0.0504,0.0479,0.0439,0.0393,0.035,0.0235,0.0261,0.0182,0.0118,0.0113,0.0069,0.0029,0.0025,0.0034,0.0035,0.0036,0.0036,0.0037,0,0.0355,0.0402,0.045,0.0464,0.0504,0.0529,0.0553,0.0558,0.0583,0.0567,0.0571,0.0504,0.0475,0.037,0.0238,0.0238,0.0102,0.0081,-0.0016,-0.0019,0.0001,0.0,-0.0001,-0.0001,-0.0,-0.0,0.0,0,0.0384,0.0422,0.047,0.0499,0.0565,0.0575,0.0638,0.0643,0.0661,0.0698,0.0629,0.0625,0.048,0.0384,0.0258,0.0105,0.0113,-0.0008,-0.0042,0.0028,0.0031,-0.0004,-0.0003,-0.0004,-0.0003,-0.0002,-0.0002,0,0.0398,0.0429,0.049,0.0551,0.0581,0.0629,0.0706,0.0745,0.0751,0.0793,0.0794,0.0714,0.0588,0.0427,0.0247,0.0136,-0.0013,-0.0071,0.0016,-0.0012,-0.0114,-0.0109,-0.0182,-0.0184,-0.0185,-0.0186,-0.0187,0,0.0405,0.044,0.0533,0.0583,0.0619,0.0695,0.0754,0.0791,0.0836,0.0848,0.0868,0.0765,0.0689,0.0424,0.0241,-0.0009,-0.0048,-0.0129,-0.0122,-0.0107,-0.0133,-0.0125,-0.0119,-0.0189,-0.0189,-0.019,-0.019,0,0.0422,0.046,0.0516,0.0624,0.0701,0.0788,0.087,0.0909,0.0956,0.0957,0.0936,0.08,0.065,0.0434,0.0233,0.0053,-0.0078,-0.0143,-0.0141,-0.0135,-0.0116,-0.0139,-0.0131,-0.0194,-0.0194,-0.0193,-0.0193,0,0.0438,0.048,0.0565,0.066,0.0759,0.0856,0.0898,0.0955,0.1001,0.1011,0.0999,0.0838,0.0746,0.0465,0.0282,0.0098,0.005,-0.0009,-0.0016,-0.0013,0.0055,0.0105,0.0069,0,0,0,0,0,0.045,0.0508,0.0595,0.0707,0.0804,0.0871,0.0968,0.1001,0.1043,0.1042,0.1027,0.089,0.0622,0.05,0.0314,0.0237,0.0002,0.001,-0.0073,-0.0219,-0.0213,-0.0165,0,0,0,0,0,0,0.0463,0.0544,0.0594,0.073,0.0811,0.093,0.0997,0.1029,0.1027,0.1034,0.0896,0.0834,0.057,0.0732,0.0309,0.0251,0.017,-0.0114,-0.0119,-0.0221,-0.0217,-0.0213,-0.0162,0,0,0,0,0]}]]